This is the latest recevied weather packets stored in our database for station/object HG8LXL-2. If no packets are shown the sender has not sent any weather packets the latest 10 day(s).
| Time | Temp. | Humidity | Pressure | Rain* | Wind** | Luminosity | Snow |
|---|---|---|---|---|---|---|---|
| 1777521599 | 8.89° C | 31% | 1023.4 hPa | - | - | - | - |
| 1777521302 | 8.33° C | 31% | 1023.4 hPa | - | - | - | - |
| 1777520999 | 8.33° C | 31% | 1023.3 hPa | - | - | - | - |
| 1777520699 | 8.33° C | 31% | 1023.3 hPa | - | - | - | - |
| 1777520399 | 8.89° C | 31% | 1023.1 hPa | - | - | - | - |
| 1777520099 | 8.89° C | 31% | 1023.2 hPa | - | - | - | - |
| 1777519799 | 8.89° C | 30% | 1023.2 hPa | - | - | - | - |
| 1777519499 | 9.44° C | 29% | 1023.1 hPa | - | - | - | - |
| 1777519199 | 9.44° C | 29% | 1023.1 hPa | - | - | - | - |
| 1777518899 | 9.44° C | 28% | 1023.1 hPa | - | - | - | - |
| 1777518599 | 9.44° C | 28% | 1023 hPa | - | - | - | - |
| 1777518299 | 10° C | 28% | 1023 hPa | - | - | - | - |
| 1777517999 | 9.44° C | 27% | 1022.9 hPa | - | - | - | - |
| 1777517699 | 9.44° C | 27% | 1022.9 hPa | - | - | - | - |
| 1777517399 | 10.56° C | 26% | 1022.8 hPa | - | - | - | - |
| 1777517099 | 10.56° C | 26% | 1022.6 hPa | - | - | - | - |
| 1777516799 | 10° C | 26% | 1022.8 hPa | - | - | - | - |
| 1777516499 | 10.56° C | 25% | 1022.7 hPa | - | - | - | - |
| 1777516199 | 10° C | 26% | 1022.7 hPa | - | - | - | - |
| 1777515899 | 10.56° C | 25% | 1022.5 hPa | - | - | - | - |
| 1777515599 | 10.56° C | 25% | 1022.7 hPa | - | - | - | - |
| 1777515299 | 10.56° C | 25% | 1022.6 hPa | - | - | - | - |
| 1777514999 | 10.56° C | 25% | 1022.6 hPa | - | - | - | - |
| 1777514699 | 11.11° C | 25% | 1022.6 hPa | - | - | - | - |
| 1777514399 | 10.56° C | 24% | 1022.6 hPa | - | - | - | - |
* Rain since midnight (hover to see other rain measurements)
** Current wind speed in m/s (hover to see current wind gust speed)